• In Belarus
  • List of Countries
  • For 7 days
  • Water Temperature
  • Satellite Maps
  • Weather Map
  • Weather Widgets
  • user-avatar
    Login

    Hourly Weather Gori

    Today, 25 June, Monday

    Time Temperature Precipitation Wind Pressure Humidity
    00:00 +20°C° 0.2 mm 1 mps 700 mmHg 89%
    01:00 +19°C° 0 mm 1 mps 700 mmHg 88%
    02:00 +19°C° 0 mm 1 mps 700 mmHg 88%
    03:00 +19°C° 0 mm 1 mps 700 mmHg 84%
    04:00 +20°C° 0 mm 1 mps 700 mmHg 82%
    05:00 +21°C° 0 mm 1 mps 700 mmHg 79%
    06:00 +22°C° 0 mm 1 mps 701 mmHg 77%
    07:00 +24°C° 0 mm 2 mps 701 mmHg 68%
    08:00 +26°C° 0 mm 2 mps 701 mmHg 59%
    09:00 +28°C° 0 mm 3 mps 701 mmHg 50%
    10:00 +29°C° 0 mm 3 mps 701 mmHg 48%
    11:00 +30°C° 0 mm 4 mps 701 mmHg 46%
    12:00 +32°C° 0 mm 4 mps 701 mmHg 43%
    13:00 +33°C° 0 mm 4 mps 701 mmHg 42%
    14:00 +33°C° 0 mm 4 mps 701 mmHg 42%
    15:00 +33°C° 0 mm 4 mps 701 mmHg 41%
    16:00 +32°C° 0 mm 4 mps 700 mmHg 44%
    17:00 +30°C° 0 mm 3 mps 700 mmHg 47%
    18:00 +30°C° 0 mm 3 mps 700 mmHg 50%
    19:00 +28°C° 0 mm 2 mps 700 mmHg 54%
    20:00 +26°C° 0 mm 2 mps 700 mmHg 59%
    21:00 +24°C° 0 mm 1 mps 700 mmHg 63%
    22:00 +23°C° 0 mm 1 mps 700 mmHg 63%
    23:00 +22°C° 0 mm 1 mps 700 mmHg 63%

    Tomorrow, 26 June, Tuesday

    Time Temperature Precipitation Wind Pressure Humidity
    00:00 +21°C° 0 mm 1 mps 700 mmHg 64%
    01:00 +21°C° 0 mm 1 mps 700 mmHg 64%
    02:00 +21°C° 0 mm 1 mps 700 mmHg 64%
    03:00 +21°C° 0 mm 1 mps 700 mmHg 64%
    04:00 +21°C° 0 mm 1 mps 700 mmHg 64%
    05:00 +22°C° 0 mm 1 mps 700 mmHg 65%
    06:00 +22°C° 0 mm 1 mps 699 mmHg 65%
    07:00 +24°C° 0 mm 2 mps 699 mmHg 58%
    08:00 +26°C° 0 mm 3 mps 699 mmHg 51%
    09:00 +29°C° 0 mm 3 mps 699 mmHg 44%
    10:00 +30°C° 0 mm 3 mps 699 mmHg 42%
    11:00 +32°C° 0 mm 4 mps 699 mmHg 39%
    12:00 +33°C° 0 mm 4 mps 699 mmHg 37%
    13:00 +33°C° 0.1 mm 4 mps 699 mmHg 36%
    14:00 +34°C° 0.1 mm 4 mps 698 mmHg 36%
    15:00 +34°C° 0.1 mm 4 mps 698 mmHg 35%
    16:00 +33°C° 0 mm 3 mps 698 mmHg 37%
    17:00 +33°C° 0 mm 3 mps 698 mmHg 40%
    18:00 +31°C° 0 mm 3 mps 698 mmHg 42%
    19:00 +29°C° 0 mm 2 mps 698 mmHg 47%
    20:00 +26°C° 0 mm 2 mps 698 mmHg 51%
    21:00 +24°C° 0 mm 1 mps 698 mmHg 56%
    22:00 +23°C° 0 mm 1 mps 698 mmHg 55%
    23:00 +23°C° 0 mm 1 mps 698 mmHg 54%

    Day after tomorrow, 27 June, Wednesday

    Time Temperature Precipitation Wind Pressure Humidity
    00:00 +22°C° 0 mm 1 mps 698 mmHg 53%
    01:00 +22°C° 0 mm 1 mps 698 mmHg 52%
    02:00 +22°C° 0 mm 1 mps 698 mmHg 51%
    03:00 +21°C° 0 mm 1 mps 698 mmHg 50%
    04:00 +22°C° 0 mm 1 mps 698 mmHg 51%
    05:00 +22°C° 0 mm 1 mps 698 mmHg 52%
    06:00 +23°C° 0 mm 1 mps 698 mmHg 54%
    07:00 +25°C° 0 mm 2 mps 698 mmHg 48%
    08:00 +28°C° 0 mm 2 mps 698 mmHg 43%
    09:00 +30°C° 0 mm 2 mps 698 mmHg 38%
    10:00 +31°C° 0 mm 3 mps 698 mmHg 37%
    11:00 +33°C° 0 mm 3 mps 698 mmHg 35%
    12:00 +34°C° 0 mm 3 mps 698 mmHg 34%
    13:00 +35°C° 0 mm 3 mps 698 mmHg 33%
    14:00 +35°C° 0 mm 3 mps 698 mmHg 33%
    15:00 +36°C° 0 mm 3 mps 698 mmHg 33%
    16:00 +35°C° 0 mm 3 mps 698 mmHg 35%
    17:00 +34°C° 0 mm 3 mps 698 mmHg 38%
    18:00 +32°C° 0 mm 2 mps 698 mmHg 41%
    19:00 +30°C° 0 mm 2 mps 698 mmHg 46%
    20:00 +27°C° 0 mm 2 mps 698 mmHg 51%
    21:00 +24°C° 0 mm 1 mps 698 mmHg 56%
    22:00 +23°C° 0 mm 1 mps 698 mmHg 56%
    23:00 +23°C° 0 mm 1 mps 698 mmHg 57%

    28 June, Thursday

    Time Temperature Precipitation Wind Pressure Humidity
    00:00 +22°C° 0 mm 1 mps 698 mmHg 57%
    01:00 +20°C° 0 mm 2 mps 698 mmHg 55%
    02:00 +20°C° 0 mm 2 mps 698 mmHg 54%
    03:00 +20°C° 0 mm 2 mps 698 mmHg 52%
    04:00 +20°C° 0 mm 2 mps 698 mmHg 52%
    05:00 +21°C° 0 mm 2 mps 698 mmHg 51%
    06:00 +23°C° 0 mm 2 mps 698 mmHg 50%
    07:00 +25°C° 0 mm 2 mps 698 mmHg 45%
    08:00 +28°C° 0 mm 3 mps 698 mmHg 40%
    09:00 +30°C° 0 mm 3 mps 699 mmHg 35%
    10:00 +32°C° 0 mm 4 mps 698 mmHg 34%
    11:00 +34°C° 0 mm 4 mps 698 mmHg 32%
    12:00 +35°C° 0 mm 5 mps 698 mmHg 31%
    13:00 +35°C° 0 mm 5 mps 698 mmHg 30%
    14:00 +36°C° 0 mm 5 mps 698 mmHg 30%
    15:00 +36°C° 0 mm 5 mps 697 mmHg 30%
    16:00 +35°C° 0 mm 4 mps 697 mmHg 32%
    17:00 +34°C° 0 mm 4 mps 697 mmHg 35%
    18:00 +33°C° 0 mm 4 mps 697 mmHg 37%
    19:00 +30°C° 0 mm 3 mps 697 mmHg 40%
    20:00 +27°C° 0 mm 3 mps 697 mmHg 44%
    21:00 +24°C° 0 mm 2 mps 698 mmHg 47%
    22:00 +24°C° 0 mm 2 mps 698 mmHg 45%
    23:00 +23°C° 0 mm 2 mps 697 mmHg 43%

    29 June, Friday

    Time Temperature Precipitation Wind Pressure Humidity
    00:00 +21°C° 0 mm 2 mps 697 mmHg 41%
    01:00 +21°C° 0 mm 2 mps 697 mmHg 42%
    02:00 +21°C° 0 mm 2 mps 697 mmHg 42%
    03:00 +20°C° 0 mm 2 mps 697 mmHg 43%
    04:00 +21°C° 0 mm 2 mps 697 mmHg 45%
    05:00 +23°C° 0 mm 2 mps 697 mmHg 47%
    06:00 +23°C° 0 mm 2 mps 697 mmHg 48%
    07:00 +26°C° 0 mm 2 mps 697 mmHg 43%
    08:00 +29°C° 0 mm 3 mps 697 mmHg 39%
    09:00 +31°C° 0 mm 3 mps 697 mmHg 34%
    10:00 +33°C° 0 mm 3 mps 697 mmHg 32%
    11:00 +35°C° 0 mm 3 mps 697 mmHg 31%
    12:00 +36°C° 0 mm 3 mps 697 mmHg 29%
    13:00 +36°C° 0 mm 3 mps 697 mmHg 29%
    14:00 +37°C° 0 mm 3 mps 697 mmHg 28%
    15:00 +37°C° 0 mm 3 mps 697 mmHg 28%
    16:00 +37°C° 0 mm 3 mps 697 mmHg 31%
    17:00 +36°C° 0 mm 3 mps 697 mmHg 34%
    18:00 +35°C° 0 mm 2 mps 697 mmHg 36%
    19:00 +31°C° 0 mm 2 mps 697 mmHg 43%
    20:00 +27°C° 0 mm 1 mps 697 mmHg 50%
    21:00 +24°C° 0 mm 1 mps 697 mmHg 56%
    22:00 +24°C° 0 mm 1 mps 697 mmHg 55%
    23:00 +23°C° 0 mm 1 mps 697 mmHg 54%

    30 June, Saturday

    Time Temperature Precipitation Wind Pressure Humidity
    00:00 +23°C° 0 mm 1 mps 697 mmHg 53%
    01:00 +22°C° 0 mm 1 mps 697 mmHg 51%
    02:00 +22°C° 0 mm 1 mps 696 mmHg 48%
    03:00 +22°C° 0 mm 1 mps 696 mmHg 45%
    04:00 +23°C° 0 mm 1 mps 697 mmHg 45%
    05:00 +23°C° 0 mm 1 mps 697 mmHg 45%
    06:00 +24°C° 0 mm 1 mps 697 mmHg 46%
    07:00 +27°C° 0 mm 2 mps 697 mmHg 40%
    08:00 +30°C° 0 mm 2 mps 697 mmHg 35%
    09:00 +32°C° 0 mm 2 mps 697 mmHg 30%
    10:00 +34°C° 0 mm 3 mps 697 mmHg 29%
    11:00 +36°C° 0 mm 3 mps 697 mmHg 27%
    12:00 +37°C° 0 mm 3 mps 697 mmHg 26%
    13:00 +37°C° 0 mm 3 mps 697 mmHg 26%
    14:00 +38°C° 0 mm 3 mps 697 mmHg 26%
    15:00 +38°C° 0 mm 3 mps 697 mmHg 26%
    16:00 +37°C° 0 mm 3 mps 696 mmHg 29%
    17:00 +36°C° 0 mm 3 mps 696 mmHg 33%
    18:00 +35°C° 0 mm 2 mps 696 mmHg 36%
    19:00 +31°C° 0 mm 2 mps 696 mmHg 43%
    20:00 +28°C° 0 mm 2 mps 696 mmHg 50%
    21:00 +25°C° 0 mm 1 mps 696 mmHg 57%
    22:00 +24°C° 0 mm 1 mps 696 mmHg 55%
    23:00 +24°C° 0 mm 1 mps 696 mmHg 52%
    Show more